CZ-6A DEB, 56609

Orbit data source: Space-Track

CZ-6A DEB, 56609 is space debris in SSO originally from a launch on Fri, 11 Nov 2022 UTC launched from the Taiyaun Space Center, China (TSC). Debris objects in space refer to the collection of defunct objects orbiting the Earth. Examples of debris include non-operational satellites, rocket bodies, and fragments generated from explosions, collisions, or faulty payload assembly.

Loading next visibility...
Identifier
56609, 2022-151AEH
Orbit
SSO
Country
Flag of CNCN / PRC
Related business
Manufacturer
SAST
Mission
Spacecraft
Bus & Motor
Unknown
Mass
Unknown
Launch date (UTC)
2022-11-11 (4 years ago)
Launch vehicle
Unknown
Launch site
Taiyaun Space Center, China (TSC)
Object type
Payload
Rocket body
Debris
Shape & HBR
Unknown shape, 0.1 m
Radar Cross Section
Small (<0.1 m²)

Expand to show TLE details & history
Last TLE update: 4 days ago

TLE from 4 days ago
0 CZ-6A DEB
1 56609U 22151AEH 26232.35685183  .00000514  00000-0  38499-3 0  9997
2 56609  98.8693 193.9424 0121299 243.0772 115.7956 13.95627703168947
Epoch: 2026-08-20T08:33Z
TLE epoch observation values (Epoch: 2026-08-20T08:33:51.998Z)
Latitude
0.00007°
Longitude
96.7786°
Altitude
951.186 km
Speed
7.356 km/s
True Right ascension
12h 55m 46s
True Declination
0° 00' 00"
Sunlit
Object was in daylight at epoch
Visualization orbit readout
Latitude
Unknown
Longitude
Unknown
Altitude
Unknown
Speed
Unknown
Apparent Right ascension
Unknown
Apparent Declination
Unknown
Sunlit
N/A
Visualization observer readout
Local Sidereal Time
00:46:55
Azimuth
Unknown
Elevation
Unknown
Doppler factor
Unknown
Orbital elements
Apogee altitude
994.531 km
Perigee altitude
817.815 km
Semi-major axis
7,284.31 km
Eccentricity
0.01213
Inclination
98.8693°
RAAN
193.9424°
Arg. of periapsis
243.0772°
True anomaly
117.03877°
Mean anomaly
115.7956°
Eccentric anomaly
116.41802°
Mean motion
3.49109 °/min
Orbital period
103.12 mins
BSTAR
0.00038499
Loading maneuver chart data...
Computing Atmospheric mass density...
Loading historical data...
Loading historical data...
Loading historical data...
Loading historical data...
Loading historical data...
Loading historical data...
Loading historical data...

Documentation

Showing up to 5 results
|